N95EJ RPVA-RPLP

Flight info

Callsign N95EJ
Flight time N/A
Altitude 6500
Route RPLP RPVM
Aircraft C208/L-SDFGR/C

Departure

Time 2026-04-27 23:39
Airport Daniel Z. Romualdez Airport (RPVA)

Arrival

Time N/A
Airport RPLP
Time Latitude Longitude Altitude Speed Heading
2026-04-27 23:14 11.22555 125.02486 16 ft 0 kts 265°
2026-04-27 23:34 11.22575 125.02473 16 ft 7 kts 56°
2026-04-27 23:35 11.22527 125.02510 16 ft 12 kts 163°
2026-04-27 23:35 11.22436 125.02515 16 ft 13 kts 175°
2026-04-27 23:35 11.22356 125.02526 16 ft 11 kts 155°
2026-04-27 23:35 11.22293 125.02553 17 ft 9 kts 171°
2026-04-27 23:36 11.22237 125.02573 17 ft 8 kts 145°
2026-04-27 23:36 11.22215 125.02620 17 ft 7 kts 98°
2026-04-27 23:36 11.22213 125.02665 17 ft 3 kts 91°
2026-04-27 23:36 11.22213 125.02677 18 ft 5 kts 94°
2026-04-27 23:37 11.22174 125.02721 19 ft 13 kts 162°
2026-04-27 23:37 11.22056 125.02729 19 ft 21 kts 182°
2026-04-27 23:37 11.21902 125.02721 18 ft 16 kts 173°
2026-04-27 23:37 11.21837 125.02743 18 ft 5 kts 172°
2026-04-27 23:38 11.21807 125.02731 18 ft 10 kts 241°
2026-04-27 23:38 11.21873 125.02716 18 ft 8 kts
2026-04-27 23:38 11.22013 125.02727 19 ft 45 kts
2026-04-27 23:38 11.22501 125.02756 84 ft 86 kts
2026-04-27 23:39 11.23142 125.02774 350 ft 95 kts
2026-04-27 23:39 11.23801 125.02752 634 ft 98 kts 359°
2026-04-27 23:39 11.24483 125.02635 885 ft 101 kts 355°
2026-04-27 23:39 11.25080 125.02328 1220 ft 101 kts 317°
2026-04-27 23:40 11.25516 125.01747 1466 ft 105 kts 305°
2026-04-27 23:40 11.25918 125.01081 1681 ft 108 kts 307°
2026-04-27 23:40 11.26309 125.00496 2057 ft 97 kts 306°
2026-04-27 23:40 11.26739 124.99897 2216 ft 110 kts 315°
2026-04-27 23:41 11.27291 124.99345 2428 ft 114 kts 327°
2026-04-27 23:41 11.27934 124.98935 2677 ft 112 kts 342°
2026-04-27 23:41 11.28636 124.98618 2966 ft 104 kts 347°
2026-04-27 23:41 11.29277 124.98378 3353 ft 96 kts 348°
2026-04-27 23:42 11.29891 124.98144 3691 ft 97 kts 352°
2026-04-27 23:42 11.30526 124.97935 4028 ft 94 kts 346°
2026-04-27 23:42 11.31159 124.97665 4218 ft 102 kts 346°
2026-04-27 23:42 11.31811 124.97409 4552 ft 96 kts 354°
2026-04-27 23:43 11.32479 124.97262 4755 ft 102 kts 358°
2026-04-27 23:43 11.33170 124.97178 5011 ft 98 kts
2026-04-27 23:43 11.33833 124.96989 5295 ft 103 kts 340°
2026-04-27 23:43 11.34445 124.96546 5522 ft 111 kts 330°
2026-04-27 23:44 11.35034 124.96090 5864 ft 102 kts 324°
2026-04-27 23:44 11.35586 124.95546 6011 ft 119 kts 319°
2026-04-27 23:44 11.36148 124.94922 6209 ft 123 kts 319°
2026-04-27 23:44 11.36769 124.94289 6337 ft 130 kts 321°
2026-04-27 23:45 11.37435 124.93634 6462 ft 135 kts 320°
2026-04-27 23:45 11.38107 124.92902 6439 ft 150 kts 315°
2026-04-27 23:45 11.38771 124.92054 6447 ft 157 kts 310°
2026-04-27 23:45 11.39438 124.91160 6414 ft 161 kts 310°
2026-04-27 23:46 11.40141 124.90261 6447 ft 159 kts 314°
2026-04-27 23:46 11.40882 124.89414 6428 ft 162 kts 316°
2026-04-27 23:46 11.41636 124.88584 6429 ft 163 kts 316°
2026-04-27 23:46 11.42394 124.87746 6488 ft 159 kts 316°
2026-04-27 23:47 11.43146 124.86915 6499 ft 160 kts 317°
2026-04-27 23:47 11.43901 124.86083 6502 ft 160 kts 316°
2026-04-27 23:47 11.44654 124.85254 6501 ft 159 kts 317°
2026-04-27 23:47 11.45408 124.84423 6500 ft 160 kts 317°
2026-04-27 23:48 11.46164 124.83591 6502 ft 159 kts 316°
2026-04-27 23:48 11.46920 124.82753 6503 ft 161 kts 316°
2026-04-27 23:48 11.47681 124.81910 6504 ft 161 kts 316°
2026-04-27 23:48 11.48442 124.81070 6501 ft 161 kts 317°
2026-04-27 23:49 11.49201 124.80232 6501 ft 161 kts 316°
2026-04-27 23:49 11.49959 124.79394 6501 ft 161 kts 316°
2026-04-27 23:49 11.50716 124.78559 6500 ft 161 kts 316°
2026-04-27 23:49 11.51476 124.77722 6501 ft 160 kts 316°
2026-04-27 23:50 11.52233 124.76889 6499 ft 160 kts 316°
2026-04-27 23:50 11.52989 124.76056 6501 ft 160 kts 317°
2026-04-27 23:50 11.53745 124.75222 6501 ft 160 kts 316°
2026-04-27 23:50 11.54246 124.74670 6499 ft 160 kts 317°
2026-04-27 23:51 11.55001 124.73836 6501 ft 160 kts 316°
2026-04-27 23:51 11.55758 124.73003 6500 ft 160 kts 317°
2026-04-27 23:51 11.56565 124.72224 6501 ft 160 kts 322°
2026-04-27 23:51 11.57386 124.71455 6501 ft 160 kts 321°
2026-04-27 23:52 11.58206 124.70686 6502 ft 160 kts 321°
2026-04-27 23:52 11.59026 124.69914 6503 ft 161 kts 321°
2026-04-27 23:52 11.59846 124.69145 6503 ft 160 kts 321°
2026-04-27 23:52 11.60665 124.68376 6501 ft 160 kts 321°
2026-04-27 23:53 11.61481 124.67611 6502 ft 160 kts 321°
2026-04-27 23:53 11.62301 124.66842 6501 ft 160 kts 321°
2026-04-27 23:53 11.63124 124.66076 6501 ft 161 kts 322°
2026-04-27 23:53 11.63958 124.65317 6499 ft 160 kts 325°
2026-04-27 23:54 11.64831 124.64623 6500 ft 159 kts 327°
2026-04-27 23:54 11.65708 124.63922 6500 ft 161 kts 327°
2026-04-27 23:54 11.66591 124.63217 6501 ft 163 kts 326°
2026-04-27 23:54 11.67486 124.62501 6502 ft 164 kts 326°
2026-04-27 23:55 11.68384 124.61789 6503 ft 163 kts 326°
2026-04-27 23:55 11.69279 124.61078 6504 ft 164 kts 326°
2026-04-27 23:55 11.70178 124.60365 6505 ft 163 kts 326°
2026-04-27 23:55 11.71077 124.59653 6503 ft 164 kts 326°
2026-04-27 23:56 11.71975 124.58942 6500 ft 163 kts 326°
2026-04-27 23:56 11.72873 124.58231 6498 ft 164 kts 327°
2026-04-27 23:56 11.73772 124.57513 6497 ft 164 kts 326°
2026-04-27 23:56 11.74671 124.56794 6496 ft 164 kts 327°
2026-04-27 23:57 11.75567 124.56072 6496 ft 164 kts 326°
2026-04-27 23:57 11.76462 124.55349 6496 ft 165 kts 326°
2026-04-27 23:57 11.77362 124.54620 6497 ft 165 kts 326°
2026-04-27 23:57 11.78262 124.53892 6495 ft 165 kts 326°
2026-04-27 23:58 11.79164 124.53164 6495 ft 165 kts 326°
2026-04-27 23:58 11.80064 124.52436 6494 ft 165 kts 326°
2026-04-27 23:58 11.80968 124.51709 6494 ft 165 kts 326°
2026-04-27 23:58 11.81868 124.50985 6491 ft 165 kts 326°
2026-04-27 23:59 11.82766 124.50264 6490 ft 164 kts 327°
2026-04-27 23:59 11.83668 124.49540 6491 ft 166 kts 326°
2026-04-27 23:59 11.84571 124.48816 6492 ft 165 kts 326°
2026-04-27 23:59 11.85473 124.48091 6491 ft 165 kts 326°
2026-04-28 00:00 11.86378 124.47363 6491 ft 165 kts 326°
2026-04-28 00:00 11.87283 124.46633 6492 ft 166 kts 326°
2026-04-28 00:00 11.88188 124.45907 6492 ft 165 kts 326°
2026-04-28 00:00 11.89094 124.45183 6497 ft 166 kts 327°
2026-04-28 00:01 11.90008 124.44453 6496 ft 168 kts 326°
2026-04-28 00:01 11.90923 124.43716 6490 ft 167 kts 326°
2026-04-28 00:01 11.91833 124.42981 6486 ft 166 kts 326°
2026-04-28 00:01 11.92732 124.42255 6492 ft 165 kts 327°
2026-04-28 00:02 11.93639 124.41536 6492 ft 165 kts 326°
2026-04-28 00:02 11.94542 124.40815 6494 ft 165 kts 326°
2026-04-28 00:02 11.95441 124.40092 6494 ft 164 kts 326°
2026-04-28 00:02 11.96338 124.39370 6491 ft 165 kts 326°
2026-04-28 00:03 11.97241 124.38646 6491 ft 165 kts 326°
2026-04-28 00:03 11.98145 124.37917 6491 ft 165 kts 326°
2026-04-28 00:03 11.99037 124.37201 6490 ft 165 kts 326°
2026-04-28 00:03 11.99956 124.36515 6492 ft 163 kts 333°
2026-04-28 00:04 12.00934 124.35899 6491 ft 163 kts 334°
2026-04-28 00:04 12.02854 124.34688 6490 ft 163 kts 333°
2026-04-28 00:04 12.03815 124.34082 6492 ft 163 kts 333°
2026-04-28 00:05 12.04786 124.33470 6505 ft 163 kts 333°
2026-04-28 00:05 12.05746 124.32860 6530 ft 163 kts 333°
2026-04-28 00:05 12.06708 124.32245 6533 ft 164 kts 333°
2026-04-28 00:05 12.07676 124.31627 6528 ft 164 kts 333°
2026-04-28 00:06 12.08646 124.31011 6528 ft 164 kts 333°
2026-04-28 00:06 12.09613 124.30398 6529 ft 164 kts 333°
2026-04-28 00:06 12.10582 124.29781 6527 ft 164 kts 333°
2026-04-28 00:06 12.11550 124.29166 6530 ft 164 kts 333°
2026-04-28 00:07 12.12520 124.28548 6530 ft 164 kts 333°
2026-04-28 00:07 12.13486 124.27931 6532 ft 164 kts 333°
2026-04-28 00:07 12.14458 124.27312 6533 ft 165 kts 333°
2026-04-28 00:07 12.15430 124.26692 6530 ft 165 kts 333°
2026-04-28 00:08 12.16404 124.26072 6529 ft 165 kts 333°
2026-04-28 00:08 12.17377 124.25450 6529 ft 164 kts 333°
2026-04-28 00:08 12.18348 124.24833 6528 ft 164 kts 333°
2026-04-28 00:08 12.19317 124.24214 6529 ft 165 kts 333°
2026-04-28 00:09 12.20290 124.23596 6529 ft 164 kts 333°
2026-04-28 00:09 12.21258 124.22981 6529 ft 164 kts 333°
2026-04-28 00:09 12.22226 124.22366 6527 ft 163 kts 335°
2026-04-28 00:09 12.23254 124.21905 6530 ft 159 kts 349°
2026-04-28 00:10 12.24316 124.21593 6531 ft 159 kts 350°
2026-04-28 00:10 12.25380 124.21280 6534 ft 159 kts 350°
2026-04-28 00:10 12.26444 124.20974 6535 ft 159 kts 350°
2026-04-28 00:10 12.27512 124.20666 6505 ft 161 kts 350°
2026-04-28 00:11 12.28584 124.20360 6505 ft 160 kts 350°
2026-04-28 00:11 12.29651 124.20053 6505 ft 159 kts 350°
2026-04-28 00:11 12.30717 124.19745 6504 ft 159 kts 350°
2026-04-28 00:11 12.31779 124.19438 6502 ft 158 kts 350°
2026-04-28 00:12 12.32842 124.19134 6498 ft 159 kts 350°
2026-04-28 00:12 12.33909 124.18835 6495 ft 159 kts 352°
2026-04-28 00:12 12.34986 124.18626 6492 ft 157 kts 356°
2026-04-28 00:12 12.36062 124.18435 6490 ft 157 kts 356°
2026-04-28 00:13 12.37135 124.18243 6492 ft 156 kts 356°
2026-04-28 00:13 12.38195 124.18053 6490 ft 156 kts 356°
2026-04-28 00:13 12.39263 124.17852 6504 ft 154 kts 355°
2026-04-28 00:13 12.40311 124.17660 6496 ft 156 kts 356°
2026-04-28 00:14 12.41393 124.17475 6489 ft 163 kts 357°
2026-04-28 00:14 12.42564 124.17290 6489 ft 176 kts 357°
2026-04-28 00:14 12.43798 124.17093 6505 ft 185 kts 357°
2026-04-28 00:14 12.45081 124.16900 6497 ft 188 kts 357°
2026-04-28 00:15 12.46376 124.16695 6498 ft 188 kts 356°
2026-04-28 00:15 12.47672 124.16485 6499 ft 189 kts 356°
2026-04-28 00:15 12.48967 124.16277 6499 ft 188 kts 356°
2026-04-28 00:15 12.50261 124.16070 6497 ft 188 kts 356°
2026-04-28 00:16 12.51553 124.15866 6498 ft 188 kts 356°
2026-04-28 00:16 12.52840 124.15659 6498 ft 187 kts 356°
2026-04-28 00:16 12.54125 124.15454 6498 ft 187 kts 356°
2026-04-28 00:16 12.55415 124.15251 6495 ft 187 kts 356°
2026-04-28 00:17 12.56701 124.15053 6495 ft 187 kts 356°
2026-04-28 00:17 12.57988 124.14852 6496 ft 187 kts 356°
2026-04-28 00:17 12.59276 124.14650 6503 ft 187 kts 356°
2026-04-28 00:17 12.60563 124.14459 6500 ft 186 kts 358°
2026-04-28 00:18 12.61851 124.14323 6500 ft 186 kts 360°
2026-04-28 00:18 12.63137 124.14189 6501 ft 186 kts 360°
2026-04-28 00:18 12.64422 124.14058 6500 ft 185 kts 360°
2026-04-28 00:18 12.65701 124.13928 6500 ft 185 kts 360°
2026-04-28 00:19 12.66983 124.13800 6502 ft 185 kts 359°
2026-04-28 00:19 12.68261 124.13665 6503 ft 185 kts 359°
2026-04-28 00:19 12.69541 124.13535 6505 ft 186 kts 359°
2026-04-28 00:19 12.70831 124.13406 6503 ft 187 kts 359°
2026-04-28 00:20 12.72133 124.13272 6504 ft 188 kts 359°
2026-04-28 00:20 12.73437 124.13139 6507 ft 189 kts 359°
2026-04-28 00:20 12.74745 124.13009 6508 ft 189 kts 359°
2026-04-28 00:20 12.76052 124.12884 6503 ft 188 kts 359°
2026-04-28 00:21 12.77359 124.12759 6504 ft 188 kts 359°
2026-04-28 00:21 12.78658 124.12632 6503 ft 187 kts 359°
2026-04-28 00:21 12.79956 124.12505 6504 ft 188 kts 359°
2026-04-28 00:21 12.81254 124.12378 6500 ft 188 kts 360°
2026-04-28 00:22 12.82552 124.12253 6500 ft 187 kts 359°
2026-04-28 00:22 12.83849 124.12126 6501 ft 187 kts 359°
2026-04-28 00:22 12.85142 124.11998 6500 ft 187 kts 359°
2026-04-28 00:22 12.86436 124.11873 6499 ft 187 kts 359°
2026-04-28 00:23 12.87734 124.11748 6502 ft 187 kts 359°
2026-04-28 00:23 12.89024 124.11623 6500 ft 187 kts 360°
2026-04-28 00:23 12.90319 124.11499 6507 ft 188 kts 359°
2026-04-28 00:23 12.91624 124.11378 6500 ft 188 kts 360°
2026-04-28 00:24 12.92922 124.11262 6505 ft 187 kts 359°
2026-04-28 00:24 12.94204 124.11148 6503 ft 179 kts 360°
2026-04-28 00:24 12.95384 124.11036 6503 ft 162 kts 360°
2026-04-28 00:24 12.96493 124.10924 6338 ft 161 kts
2026-04-28 00:25 12.97614 124.10806 6163 ft 161 kts 360°
2026-04-28 00:25 12.98722 124.10687 6007 ft 160 kts 359°
2026-04-28 00:25 12.99830 124.10566 5825 ft 160 kts 360°
2026-04-28 00:25 13.00915 124.10420 5648 ft 161 kts 352°
2026-04-28 00:26 13.01973 124.10024 5500 ft 162 kts 342°
2026-04-28 00:26 13.03016 124.09573 5340 ft 163 kts 342°
2026-04-28 00:26 13.04066 124.09126 5179 ft 163 kts 342°
2026-04-28 00:26 13.05109 124.08681 5014 ft 162 kts 342°
2026-04-28 00:27 13.06125 124.08169 4857 ft 164 kts 332°
2026-04-28 00:27 13.07078 124.07521 4707 ft 164 kts 330°
2026-04-28 00:27 13.08029 124.06874 4564 ft 164 kts 331°
2026-04-28 00:27 13.08958 124.06225 4512 ft 159 kts 327°
2026-04-28 00:28 13.09799 124.05502 4506 ft 155 kts 323°
2026-04-28 00:28 13.10462 124.04631 4499 ft 155 kts 304°
2026-04-28 00:28 13.11027 124.03692 4498 ft 154 kts 305°
2026-04-28 00:28 13.11592 124.02761 4499 ft 154 kts 304°
2026-04-28 00:29 13.12161 124.01824 4502 ft 155 kts 304°
2026-04-28 00:29 13.12733 124.00888 4505 ft 155 kts 305°
2026-04-28 00:29 13.13277 123.99933 4504 ft 156 kts 295°
2026-04-28 00:29 13.13633 123.98879 4503 ft 157 kts 289°
2026-04-28 00:30 13.13984 123.97820 4504 ft 157 kts 290°
2026-04-28 00:30 13.14336 123.96759 4503 ft 157 kts 289°
2026-04-28 00:30 13.14695 123.95674 4509 ft 166 kts 289°
2026-04-28 00:30 13.15067 123.94550 4455 ft 167 kts 289°
2026-04-28 00:31 13.15437 123.93426 4390 ft 166 kts 289°
2026-04-28 00:31 13.15811 123.92304 4317 ft 165 kts 290°
2026-04-28 00:31 13.16173 123.91179 4254 ft 167 kts 286°
2026-04-28 00:31 13.16399 123.90013 4196 ft 166 kts 279°
2026-04-28 00:32 13.16595 123.88860 3917 ft 166 kts 280°
2026-04-28 00:32 13.16794 123.87694 3578 ft 165 kts 280°
2026-04-28 00:32 13.16988 123.86540 3248 ft 163 kts 279°
2026-04-28 00:32 13.17183 123.85392 2909 ft 164 kts 280°
2026-04-28 00:33 13.17382 123.84246 2605 ft 162 kts 280°
2026-04-28 00:33 13.17571 123.83140 2501 ft 151 kts 280°
2026-04-28 00:33 13.17738 123.82114 2488 ft 142 kts 279°
2026-04-28 00:33 13.17898 123.81134 2490 ft 138 kts 279°
2026-04-28 00:34 13.18056 123.80177 2492 ft 134 kts 279°
2026-04-28 00:34 13.18219 123.79227 2493 ft 137 kts 280°
2026-04-28 00:34 13.18379 123.78271 2494 ft 138 kts 280°
2026-04-28 00:34 13.18542 123.77298 2472 ft 140 kts 280°
2026-04-28 00:35 13.18758 123.76338 2394 ft 138 kts 283°
2026-04-28 00:35 13.18620 123.75389 2283 ft 135 kts 253°
2026-04-28 00:35 13.18419 123.74493 2322 ft 125 kts 251°
2026-04-28 00:35 13.18158 123.73640 2134 ft 121 kts 249°
2026-04-28 00:36 13.17923 123.72858 2056 ft 115 kts 248°
2026-04-28 00:36 13.17652 123.72121 2107 ft 104 kts 245°
2026-04-28 00:36 13.17387 123.71421 2082 ft 108 kts 242°
2026-04-28 00:36 13.17073 123.70733 2110 ft 105 kts 239°
2026-04-28 00:37 13.16707 123.70095 2170 ft 102 kts 233°
2026-04-28 00:37 13.16339 123.69419 2190 ft 117 kts 237°
2026-04-28 00:37 13.16066 123.68907 2091 ft 124 kts 235°
2026-04-28 00:37 13.15384 123.68140 2186 ft 105 kts 189°
2026-04-28 00:38 13.14912 123.68140 2147 ft 98 kts 156°
2026-04-28 00:38 13.14314 123.68461 2081 ft 98 kts 136°
2026-04-28 00:38 13.13830 123.68959 1920 ft 102 kts 120°
2026-04-28 00:38 13.13690 123.69632 1775 ft 94 kts 80°
2026-04-28 00:39 13.13849 123.70277 1427 ft 96 kts 74°
2026-04-28 00:39 13.14136 123.70882 1056 ft 91 kts 63°
2026-04-28 00:39 13.14455 123.71423 812 ft 86 kts 60°
2026-04-28 00:39 13.14791 123.71943 515 ft 88 kts 60°
2026-04-28 00:40 13.15087 123.72421 263 ft 76 kts 59°
2026-04-28 00:40 13.15361 123.72855 85 ft 67 kts 60°
2026-04-28 00:40 13.15591 123.73217 53 ft 48 kts 58°
2026-04-28 00:40 13.15695 123.73389 51 ft 23 kts 61°
2026-04-28 00:41 13.15746 123.73459 51 ft 8 kts 254°
2026-04-28 00:41 13.15699 123.73390 51 ft 17 kts 234°
2026-04-28 00:41 13.15618 123.73268 53 ft 24 kts 235°
2026-04-28 00:41 13.15519 123.73108 49 ft 25 kts 238°
2026-04-28 00:42 13.15410 123.73038 58 ft 16 kts 191°
2026-04-28 00:42 13.15329 123.73017 60 ft 9 kts 177°
2026-04-28 00:42 13.15306 123.73039 61 ft 3 kts 117°
2026-04-28 00:42 13.15303 123.73045 56 ft 0 kts 117°